FW4300 Weather Reports


Display with metric or nautical units.
time (UTC)temp
F
wind
direction
speed
MPH
gust
MPH
rain 1hr
in
rain 24hr
in
rain mn
in
humidity
%
barometer
mb
20260831104558 0 0.0 0.0 0.00 0.35 0.02 1016.2
20260831104055 0 0.0 0.0 0.00 0.35 0.02 1016.3
20260831103553 0 0.0 0.0 0.00 0.35 0.02 1016.1
20260831103059 0 0.0 0.0 0.00 0.35 0.02 1016.1
20260831102551 0 0.0 0.0 0.00 0.35 0.02 1016.1
20260831102049 0 0.0 0.0 0.00 0.35 0.02 1015.9
20260831101547 0 0.0 0.0 0.00 0.35 0.02 1016.0
20260831101047 0 0.0 0.0 0.00 0.35 0.02 1016.0
20260831100544 0 0.0 0.0 0.00 0.35 0.02 1015.8
20260831100046 0 0.0 0.0 0.00 0.35 0.02 1015.8
20260831095540 0 0.0 0.0 0.00 0.35 0.02 1015.8
20260831095039 0 0.0 0.0 0.00 0.35 0.02 1015.7
20260831094540 0 0.0 0.0 0.00 0.35 0.02 1015.8
20260831094036 0 0.0 0.0 0.00 0.35 0.02 1015.8
20260831093534 0 0.0 0.0 0.00 0.35 0.02 1015.8
20260831093032 0 0.0 0.0 0.00 0.35 0.02 1015.8
20260831092530 0 0.0 0.0 0.00 0.35 0.02 1015.7
20260831092029 0 0.0 0.0 0.00 0.35 0.02 1015.7
20260831091527 0 0.0 0.0 0.00 0.35 0.02 1015.7
20260831091026 0 0.0 0.0 0.00 0.35 0.02 1015.7
20260831090524 0 0.0 0.0 0.00 0.35 0.02 1015.7
20260831090023 0 0.0 0.0 0.00 0.35 0.02 1015.6
20260831085520 0 0.0 0.0 0.00 0.35 0.02 1015.6
20260831085022 0 0.0 0.0 0.01 0.35 0.02 1015.5
20260831084532 0 0.0 0.0 0.01 0.35 0.02 1015.4
20260831084015 0 0.0 0.0 0.01 0.35 0.02 1015.4
20260831083513 0 155 2.0 9.0 0.01 0.35 0.02 1015.3
20260831083012 0 155 2.0 9.0 0.01 0.35 0.02 1015.4
20260831082511 78 126 2.0 9.0 0.01 0.35 0.02 82 1015.4
20260831082009 77 91 3.0 9.0 0.01 0.35 0.02 82 1015.4
20260831081518 77 139 2.0 7.0 0.01 0.35 0.02 81 1015.4
20260831081109 77 117 0.0 4.0 0.01 0.35 0.02 81 1015.4
20260831080507 77 105 0.0 0.0 0.01 0.35 0.02 81 1015.5
20260831080005 77 134 0.0 0.0 0.01 0.35 0.02 81 1015.5
20260831075504 77 103 0.0 0.0 0.01 0.35 0.02 81 1015.5
20260831075003 77 119 0.0 0.0 0.00 0.34 0.01 80 1015.6
20260831074513 77 133 0.0 0.0 0.00 0.34 0.01 80 1015.7
20260831074004 77 142 0.0 5.0 0.00 0.34 0.01 80 1015.6
20260831073501 77 154 0.0 5.0 0.00 0.34 0.01 80 1015.7
20260831073211 77 122 1.0 6.0 0.00 0.34 0.01 80 1015.7
20260831072558 77 90 4.0 6.0 0.00 0.34 0.01 81 1015.7
20260831072057 77 114 0.0 6.0 0.00 0.34 0.01 81 1015.8
20260831071556 77 121 1.0 8.0 0.00 0.34 0.01 81 1015.8
20260831071055 77 111 2.0 8.0 0.00 0.34 0.01 81 1015.9
20260831070557 77 123 4.0 8.0 0.00 0.34 0.01 81 1015.9
20260831070054 77 65 3.0 8.0 0.00 0.34 0.01 81 1015.8
20260831065554 77 160 2.0 8.0 0.00 0.34 0.01 81 1015.9
20260831065053 77 123 4.0 10.0 0.00 0.34 0.01 81 1016.1
20260831064601 77 117 3.0 10.0 0.00 0.34 0.01 81 1016.0
20260831064055 77 96 3.0 8.0 0.00 0.34 0.01 81 1016.0
20260831063550 77 114 4.0 8.0 0.00 0.34 0.01 81 1015.9
20260831063051 78 150 2.0 9.0 0.00 0.34 0.01 81 1016.0
20260831062551 78 152 4.0 9.0 0.00 0.34 0.01 81 1016.0
20260831062046 78 117 3.0 10.0 0.00 0.34 0.01 81 1016.0
20260831061548 78 122 3.0 10.0 0.00 0.34 0.01 81 1016.0
20260831061044 78 159 2.0 7.0 0.00 0.34 0.01 81 1015.9
20260831060543 78 131 1.0 9.0 0.00 0.34 0.01 81 1015.9
20260831060058 78 129 3.0 11.0 0.00 0.34 0.01 81 1015.9
20260831055540 78 120 2.0 11.0 0.00 0.34 0.01 81 1016.0
20260831055040 78 160 4.0 9.0 0.00 0.34 0.01 81 1016.0
20260831054541 78 128 3.0 9.0 0.00 0.34 0.01 81 1016.0
20260831054037 78 113 4.0 9.0 0.00 0.34 0.01 81 1016.2
20260831053636 78 156 2.0 10.0 0.00 0.34 0.01 81 1016.2
20260831053037 79 146 4.0 9.0 0.00 0.34 0.01 81 1016.3
20260831052534 79 108 2.0 9.0 0.00 0.34 0.01 81 1016.3
20260831052033 79 150 3.0 9.0 0.00 0.34 0.01 80 1016.3
20260831051531 79 182 3.0 9.0 0.00 0.34 0.01 80 1016.4
20260831051031 79 108 3.0 8.0 0.00 0.34 0.01 80 1016.4
20260831050530 79 158 3.0 8.0 0.00 0.34 0.01 80 1016.4
20260831050041 79 246 4.0 13.0 0.01 0.34 0.01 80 1016.5
20260831045528 78 152 3.0 13.0 0.01 0.39 0.01 80 1016.6
20260831045026 79 169 5.0 12.0 0.01 0.39 0.01 80 1016.8
20260831044525 78 196 5.0 12.0 0.01 0.39 0.01 81 1016.8
20260831044023 78 155 3.0 11.0 0.01 0.39 0.01 81 1016.9
20260831043523 78 169 4.0 11.0 0.01 0.39 0.01 81 1017.0
20260831043025 78 193 3.0 8.0 0.01 0.39 0.01 81 1017.1
20260831042521 78 116 2.0 10.0 0.01 0.39 0.01 81 1017.0
20260831042021 78 142 3.0 10.0 0.01 0.39 0.01 81 1017.0
20260831041519 79 181 4.0 12.0 0.01 0.39 0.01 81 1017.0
20260831041017 79 180 5.0 12.0 0.01 0.39 0.01 81 1016.9
20260831040515 79 139 5.0 12.0 0.01 0.39 0.01 82 1016.9
20260831040038 79 148 3.0 8.0 0.00 0.38 0.00 82 1016.9
20260831035514 79 123 2.0 10.0 0.00 0.38 0.00 81 1016.8
20260831035013 78 146 2.0 10.0 0.00 0.38 0.00 82 1016.8
20260831034512 78 118 2.0 9.0 0.00 0.38 0.00 82 1016.9
20260831034012 78 100 3.0 8.0 0.00 0.38 0.00 82 1017.0
20260831033511 79 89 3.0 6.0 0.00 0.38 0.00 82 1017.0
20260831033017 79 125 2.0 6.0 0.00 0.38 0.00 81 1017.0
20260831032511 79 144 2.0 7.0 0.00 0.38 0.00 81 1017.0
20260831032009 78 123 3.0 7.0 0.00 0.38 0.00 82 1017.0
20260831031509 78 120 1.0 5.0 0.00 0.38 0.00 82 1017.2
20260831031010 78 145 1.0 8.0 0.00 0.38 0.00 82 1017.3
20260831030508 78 123 3.0 11.0 0.00 0.38 0.00 82 1017.3
20260831030021 78 109 4.0 11.0 0.00 0.38 0.00 82 1017.4
20260831025507 79 120 4.0 10.0 0.00 0.38 0.00 82 1017.3
20260831025006 79 142 3.0 7.0 0.00 0.38 0.00 82 1017.2
20260831024505 78 136 3.0 5.0 0.00 0.38 0.00 82 1017.1
20260831024005 78 97 2.0 5.0 0.00 0.38 0.00 82 1017.2
20260831023503 78 85 0.0 0.0 0.00 0.38 0.00 82 1017.2
20260831023003 78 133 0.0 0.0 0.00 0.38 0.00 82 1017.2
20260831022502 78 172 0.0 0.0 0.00 0.38 0.00 82 1017.2
20260831022001 78 131 0.0 0.0 0.00 0.38 0.00 82 1017.0
20260831021600 78 129 0.0 3.0 0.00 0.38 0.00 82 1017.1
20260831021059 78 110 0.0 3.0 0.00 0.38 0.00 82 1017.0
20260831020559 78 126 0.0 0.0 0.00 0.38 0.00 82 1017.0
20260831020059 78 143 0.0 4.0 0.00 0.38 0.00 82 1016.9
20260831015558 78 110 1.0 4.0 0.00 0.38 0.00 82 1017.0
20260831015056 78 207 0.0 0.0 0.00 0.38 0.00 82 1017.0
20260831014555 78 148 0.0 0.0 0.00 0.38 0.00 82 1016.9
20260831014054 78 181 0.0 0.0 0.00 0.38 0.00 82 1016.8
20260831013554 78 171 0.0 4.0 0.00 0.38 0.00 82 1016.7
20260831013056 77 107 1.0 4.0 0.00 0.38 0.00 82 1016.7
20260831012554 77 167 0.0 0.0 0.00 0.38 0.00 82 1016.7
20260831012054 77 172 0.0 0.0 0.00 0.38 0.00 82 1016.5
20260831011550 77 164 0.0 0.0 0.00 0.38 0.00 82 1016.5
20260831011049 77 148 0.0 0.0 0.00 0.38 0.00 82 1016.4
20260831010549 77 177 0.0 0.0 0.00 0.38 0.00 82 1016.2
20260831010048 77 140 0.0 0.0 0.00 0.38 0.00 82 1016.1
20260831005548 77 150 0.0 0.0 0.00 0.38 0.00 82 1016.0
20260831005047 77 150 0.0 0.0 0.00 0.38 0.00 82 1015.8
20260831004549 77 151 0.0 3.0 0.00 0.38 0.00 82 1015.8
20260831004046 77 163 0.0 3.0 0.00 0.38 0.00 82 1015.7
20260831003548 77 122 1.0 2.0 0.00 0.38 0.00 82 1015.6
20260831003045 77 147 0.0 0.0 0.00 0.38 0.00 82 1015.4
20260831002545 77 147 0.0 2.0 0.00 0.38 0.00 82 1015.4
20260831002043 77 141 0.0 2.0 0.00 0.38 0.00 82 1015.3
20260831001543 77 135 0.0 0.0 0.00 0.38 0.00 82 1015.5
20260831001042 77 133 0.0 0.0 0.00 0.38 0.00 82 1015.4
20260831000542 77 132 0.0 0.0 0.00 0.38 0.00 82 1015.4
20260831000053 77 219 0.0 0.0 0.00 0.38 0.00 82 1015.4
20260830235539 77 219 0.0 0.0 0.00 0.38 0.00 82 1015.3
20260830235039 77 219 0.0 0.0 0.00 0.38 0.00 82 1015.3
20260830234546 77 219 0.0 0.0 0.00 0.38 0.00 82 1015.3
20260830234037 77 219 0.0 0.0 0.00 0.38 0.00 81 1015.3
20260830233536 77 219 0.0 0.0 0.00 0.38 0.00 81 1015.2
20260830233052 77 219 0.0 0.0 0.00 0.38 0.00 81 1015.3
20260830232535 77 219 0.0 0.0 0.00 0.38 0.00 81 1015.4
20260830232035 77 219 0.0 0.0 0.00 0.38 0.00 81 1015.3
20260830231533 77 231 0.0 0.0 0.00 0.38 0.00 81 1015.3
20260830231033 77 219 0.0 0.0 0.00 0.38 0.00 81 1015.4
20260830230532 78 203 0.0 2.0 0.00 0.38 0.00 81 1015.3
20260830230032 78 169 0.0 2.0 0.00 0.38 0.00 81 1015.3
20260830225532 78 168 0.0 0.0 0.00 0.38 0.00 81 1015.5
20260830225032 78 104 0.0 0.0 0.00 0.38 0.00 81 1015.5
20260830224530 78 156 0.0 0.0 0.00 0.38 0.00 81 1015.5
20260830224029 79 176 0.0 0.0 0.00 0.38 0.00 81 1015.6
20260830223527 79 130 0.0 1.0 0.00 0.38 0.00 80 1015.5
20260830223028 79 127 0.0 3.0 0.00 0.38 0.00 80 1015.4
20260830222527 79 173 0.0 3.0 0.00 0.38 0.00 80 1015.3
20260830222026 79 210 0.0 0.0 0.00 0.38 0.00 80 1015.2
20260830221526 79 155 0.0 0.0 0.00 0.38 0.00 80 1015.1
20260830221025 79 150 0.0 0.0 0.00 0.38 0.00 80 1015.0
20260830220525 79 158 0.0 0.0 0.00 0.38 0.00 80 1015.0
20260830220039 79 132 0.0 1.0 0.00 0.38 0.00 80 1015.0
20260830215524 79 113 0.0 2.0 0.00 0.38 0.00 80 1014.8
20260830215023 79 153 0.0 2.0 0.00 0.38 0.00 80 1014.7
20260830214522 79 127 0.0 0.0 0.00 0.38 0.00 80 1014.5
20260830214021 79 126 0.0 0.0 0.00 0.38 0.00 80 1014.5
20260830213520 79 147 0.0 0.0 0.00 0.38 0.00 80 1014.4
20260830213025 79 147 0.0 0.0 0.00 0.38 0.00 80 1014.1
20260830212519 79 147 0.0 0.0 0.00 0.38 0.00 80 1014.0
20260830212119 79 147 0.0 0.0 0.00 0.38 0.00 80 1014.1
20260830211518 79 184 0.0 0.0 0.00 0.38 0.00 80 1014.1
20260830211018 79 172 0.0 0.0 0.00 0.38 0.00 80 1014.3
20260830210517 79 148 0.0 3.0 0.00 0.38 0.00 80 1014.3
20260830210021 79 130 0.0 4.0 0.00 0.38 0.00 80 1014.2
20260830205518 78 122 1.0 4.0 0.00 0.38 0.00 80 1014.1
20260830205014 78 123 0.0 3.0 0.00 0.38 0.00 80 1014.0
20260830204514 78 126 0.0 0.0 0.00 0.38 0.00 80 1013.9
20260830204013 78 133 0.0 2.0 0.00 0.38 0.00 80 1014.0
20260830203513 78 134 0.0 3.0 0.00 0.38 0.00 80 1013.9
20260830203012 78 110 0.0 3.0 0.00 0.38 0.00 80 1013.8
20260830202512 78 179 0.0 4.0 0.00 0.38 0.00 81 1014.0
20260830202011 78 129 1.0 4.0 0.00 0.38 0.00 81 1013.9
20260830201511 78 179 1.0 4.0 0.00 0.38 0.00 81 1014.0
20260830201010 77 132 0.0 6.0 0.00 0.38 0.00 81 1014.1
20260830200510 77 112 1.0 7.0 0.00 0.38 0.00 82 1014.1
20260830200009 77 138 2.0 6.0 0.00 0.38 0.00 82 1014.2
20260830195508 77 127 1.0 6.0 0.00 0.38 0.00 82 1014.2
20260830195107 77 143 1.0 7.0 0.00 0.38 0.00 82 1014.2
20260830194508 77 117 3.0 8.0 0.00 0.38 0.00 82 1014.3
20260830194008 76 122 3.0 8.0 0.00 0.38 0.00 82 1014.3
20260830193505 76 105 2.0 6.0 0.00 0.38 0.00 82 1014.2
20260830193004 76 126 3.0 8.0 0.00 0.38 0.00 82 1014.2
20260830192503 76 153 3.0 8.0 0.00 0.38 0.00 82 1014.0
20260830192003 76 153 1.0 8.0 0.00 0.38 0.00 83 1013.9
20260830191504 76 116 4.0 8.0 0.00 0.38 0.00 82 1013.7
20260830191001 77 93 2.0 6.0 0.00 0.38 0.00 82 1013.7
20260830190600 77 155 0.0 2.0 0.00 0.38 0.00 83 1013.7
20260830190110 77 20 0.0 0.0 0.00 0.38 0.00 83 1013.4
20260830185601 77 20 0.0 0.0 0.00 0.38 0.00 1013.2
20260830183551 77 323 0.0 2.0 0.00 0.38 0.38 83 1013.1
20260830183052 76 306 0.0 3.0 0.00 0.38 0.38 82 1013.2
20260830182550 76 311 1.0 3.0 0.00 0.38 0.38 82 1013.0
20260830182050 76 280 0.0 5.0 0.00 0.38 0.38 82 1012.9
20260830181550 76 285 1.0 8.0 0.00 0.38 0.38 82 1012.9
20260830181049 76 16 4.0 8.0 0.00 0.38 0.38 82 1012.9
20260830180552 76 356 3.0 7.0 0.00 0.38 0.38 83 1013.1
20260830180047 76 295 2.0 10.0 0.00 0.38 0.38 83 1013.3
20260830175548 76 6 5.0 10.0 0.00 0.38 0.38 83 1013.5
20260830175045 76 333 2.0 8.0 0.00 0.38 0.38 83 1013.7
20260830174550 76 299 2.0 8.0 0.00 0.38 0.38 83 1013.9
20260830174043 75 309 0.0 6.0 0.00 0.38 0.38 83 1014.1
20260830173545 75 25 2.0 7.0 0.00 0.38 0.38 83 1014.4
20260830173048 75 321 1.0 10.0 0.00 0.38 0.38 83 1014.3
20260830172545 75 15 1.0 7.0 0.01 0.38 0.38 83 1014.6
20260830172043 75 40 3.0 8.0 0.04 0.38 0.38 83 1014.6
20260830171542 75 312 4.0 8.0 0.07 0.38 0.38 83 1014.9
20260830171042 76 289 1.0 5.0 0.09 0.38 0.38 83 1015.0
20260830170541 76 278 3.0 5.0 0.13 0.38 0.38 84 1014.8
20260830170041 76 342 0.0 0.0 0.15 0.38 0.38 83 1015.0
20260830165540 76 122 0.0 0.0 0.16 0.38 0.38 83 1015.5
20260830165039 76 99 0.0 0.0 0.18 0.38 0.38 83 1015.7
20260830164539 76 87 0.0 0.0 0.18 0.38 0.38 83 1015.8
20260830164038 77 133 0.0 9.0 0.18 0.38 0.38 83 1015.6
20260830163538 77 172 2.0 14.0 0.18 0.38 0.38 83 1015.6
20260830163041 78 217 5.0 17.0 0.18 0.38 0.38 83 1015.7
20260830162537 78 148 5.0 16.0 0.17 0.37 0.37 83 1015.7
20260830162040 79 127 2.0 8.0 0.13 0.33 0.33 83 1015.6
20260830161541 79 106 3.0 12.0 0.11 0.31 0.31 83 1015.4
20260830161036 79 153 4.0 12.0 0.09 0.28 0.28 83 1015.4
20260830160536 79 113 5.0 12.0 0.05 0.25 0.25 83 1015.3
20260830160040 79 156 5.0 8.0 0.03 0.23 0.23 83 1015.2
20260830155535 80 186 2.0 6.0 0.02 0.22 0.22 83 1015.2
20260830155035 79 276 0.0 2.0 0.00 0.20 0.20 83 1015.0
20260830154538 80 276 0.0 4.0 0.01 0.20 0.20 83 1015.2
20260830154035 80 298 2.0 4.0 0.02 0.20 0.20 83 1015.4
20260830153535 80 315 0.0 4.0 0.02 0.20 0.20 83 1015.5
20260830153036 80 290 0.0 5.0 0.02 0.20 0.20 83 1015.6
20260830152535 80 317 0.0 6.0 0.02 0.20 0.20 83 1015.5
20260830152036 80 334 3.0 6.0 0.02 0.20 0.20 83 1015.3
20260830151534 80 7 1.0 5.0 0.02 0.20 0.20 84 1015.6
20260830151034 80 307 0.0 3.0 0.02 0.20 0.20 84 1015.7
20260830150533 80 283 1.0 3.0 0.02 0.20 0.20 84 1015.7
20260830150040 80 295 0.0 3.0 0.02 0.20 0.20 83 1015.8
20260830145535 80 290 0.0 2.0 0.02 0.20 0.20 84 1015.9
20260830145034 80 102 0.0 4.0 0.02 0.20 0.20 83 1016.0
20260830144532 80 264 0.0 4.0 0.01 0.19 0.19 83 1015.7
20260830144032 80 354 1.0 4.0 0.00 0.18 0.18 83 1015.9
20260830143532 80 285 1.0 5.0 0.00 0.18 0.18 83 1015.9
20260830143032 80 4 3.0 6.0 0.00 0.18 0.18 83 1016.1
20260830142532 80 323 3.0 6.0 0.00 0.18 0.18 83 1015.8
20260830142032 80 6 3.0 6.0 0.00 0.18 0.18 83 1015.6
20260830141533 80 340 2.0 4.0 0.01 0.18 0.18 83 1015.8
20260830141031 80 349 0.0 6.0 0.01 0.18 0.18 84 1016.1
20260830140529 79 323 3.0 7.0 0.01 0.18 0.18 84 1015.8
20260830140029 79 335 5.0 7.0 0.01 0.18 0.18 83 1015.8
20260830135528 79 323 3.0 7.0 0.01 0.18 0.18 83 1015.9
20260830135032 79 287 2.0 4.0 0.01 0.18 0.18 84 1015.8
20260830134529 79 351 2.0 4.0 0.01 0.18 0.18 84 1015.7
20260830134029 79 32 0.0 1.0 0.01 0.18 0.18 84 1015.6
20260830133528 79 286 0.0 4.0 0.01 0.18 0.18 84 1015.4
20260830133027 79 333 2.0 5.0 0.01 0.18 0.18 84 1015.6
20260830132527 79 319 2.0 5.0 0.01 0.18 0.18 84 1015.7
20260830132030 79 353 3.0 6.0 0.01 0.18 0.18 84 1015.6
20260830131547 79 46 3.0 5.0 0.01 0.17 0.17 84 1015.7
20260830131026 79 322 3.0 6.0 0.02 0.17 0.17 84 1015.8
20260830130525 79 359 3.0 7.0 0.02 0.17 0.17 84 1015.8
20260830130025 79 11 3.0 7.0 0.02 0.17 0.17 84 1015.7
20260830125525 79 347 2.0 6.0 0.02 0.17 0.17 84 1015.6
20260830125029 78 328 0.0 7.0 0.02 0.17 0.17 84 1015.5
20260830124525 78 15 0.0 10.0 0.02 0.17 0.17 84 1015.4
20260830124024 78 316 0.0 0.0 0.02 0.17 0.17 84 1015.4
20260830123524 78 15 0.0 0.0 0.02 0.17 0.17 84 1015.3
20260830123027 78 28 0.0 0.0 0.02 0.17 0.17 84 1015.1
20260830122524 78 25 0.0 0.0 0.02 0.17 0.17 83 1015.0
20260830122023 78 8 0.0 0.0 0.04 0.17 0.17 83 1015.1
20260830121523 78 297 0.0 0.0 0.07 0.16 0.16 83 1015.1
20260830121022 78 311 0.0 0.0 0.06 0.15 0.15 83 1015.0
20260830120522 78 354 0.0 0.0 0.07 0.15 0.15 83 1015.0
20260830120022 78 360 0.0 0.0 0.10 0.15 0.15 83 1015.2
20260830115522 78 61 0.0 0.0 0.10 0.15 0.15 83 1015.1
20260830115022 77 165 0.0 0.0 0.10 0.15 0.15 83 1015.1
20260830114526 77 165 0.0 0.0 0.10 0.15 0.15 83 1015.2
20260830114020 77 161 0.0 0.0 0.10 0.15 0.15 83 1015.3
20260830113521 77 160 0.0 0.0 0.10 0.15 0.15 83 1015.1
20260830113023 77 99 0.0 0.0 0.10 0.15 0.15 83 1015.2
20260830112521 77 98 0.0 0.0 0.10 0.15 0.15 83 1015.1
20260830112020 77 93 0.0 0.0 0.07 0.12 0.12 82 1015.2
20260830111527 77 280 0.0 0.0 0.04 0.09 0.09 82 1015.0
20260830111019 77 298 0.0 0.0 0.04 0.09 0.09 82 1015.0
20260830110518 77 84 0.0 0.0 0.02 0.07 0.07 82 1014.8
20260830110016 0 0.0 0.0 0.00 0.05 0.05 1014.5
20260830105516 0 0.0 0.0 0.00 0.05 0.05 1014.7
20260830105013 0 0.0 0.0 0.00 0.05 0.05 1014.8